[[{"header":{"parameterUnit":"m.s-1","parameterCategory":1,"la1":30.2991,"la2":30.254,"lo1":-89.0895,"lo2":-89.0444,"dy":0.0017,"dx":0.0017,"nx":28,"ny":28,"refTime":"2024-04-03T03:00:00:Z","depth":0,"parameterNumber":2,"parameterNumberName":"U-component_of_WINDS"},"data":[0,0,0,0,0,0,0,0,0,0,0,0,0,0,0,0,0,0,0,0,0,0,0,0,0,0,0,0,0,0,0,0,0,0,0,0,0,0,0,0,0,0,0,0,0,0,0,0,0,0,0,0,0,0,0,0,0,0,5.8502,5.8503,0,5.8636,5.8637,5.8639,5.8604,5.8601,5.8598,5.8596,5.8731,5.8737,5.8743,0,0,0,0,0,0,0,0,0,0,0,0,0,5.8214,5.822,5.8502,5.8503,5.8505,5.8636,5.8638,5.8639,5.8604,5.8601,5.8598,5.8595,5.8729,5.8736,5.8743,0,0,0,0,0,0,0,0,0,0,0,0,0,5.8343,5.8222,5.8501,5.8503,5.8505,5.8635,5.8638,5.864,5.8605,5.8601,5.8597,5.8593,5.8727,5.8735,5.8744,5.8881,0,0,5.8772,5.8776,0,0,0,0,0,0,0,0,5.8336,5.8353,5.8501,5.8503,5.8505,5.8599,5.8586,5.872,5.8606,5.8567,5.8596,5.8591,5.869,5.8702,5.8736,5.8887,5.8893,5.8773,5.8779,5.8783,5.8785,0,0,0,0,0,0,0,5.8327,5.8348,5.8555,5.8503,5.8506,5.8497,5.8511,5.8611,5.8649,5.857,5.8568,5.8584,5.869,5.8727,5.8739,5.8895,5.8773,5.8781,5.8787,5.879,5.9167,5.9171,0,0,0,0,0,0,5.8317,5.834,5.855,5.8559,5.8409,5.8506,5.8521,5.8573,5.8648,5.8656,5.8587,5.8582,5.8714,5.8728,5.8743,5.891,5.8782,5.8791,5.8796,5.9163,5.9168,5.9173,0,0,0,0,0,0,5.8311,5.8336,5.8545,5.8449,5.8475,5.8515,5.8573,5.8578,5.8614,5.8661,5.8668,5.8618,5.8711,5.8731,5.8848,5.8914,5.8795,5.8803,5.9157,5.9164,5.9171,5.9242,0,0,0,0,0,0,5.8302,5.8334,5.8386,5.8451,5.848,5.8647,5.8577,5.8583,5.863,5.8625,5.8692,5.8699,5.8709,5.8834,5.8857,5.8924,5.881,5.9152,5.916,5.9168,5.9234,5.925,5.9264,0,0,0,0,0,5.8292,5.8399,5.8388,5.8414,5.8546,5.8651,5.8668,5.8678,5.8636,5.8689,5.8719,5.8697,5.8903,5.8846,5.8871,5.8943,5.9147,5.9158,5.9168,5.9227,5.9247,5.9264,0,0,0,0,0,0,5.8339,5.8408,5.8396,5.8528,5.8584,5.8645,5.8711,5.8699,5.8768,5.8759,5.8769,5.8785,5.8905,5.8935,5.8871,5.908,5.9019,5.9035,5.9055,5.9075,5.909,5.908,5.8818,0,0,0,0,0,5.8365,5.8445,5.85,5.8611,5.864,5.8671,5.8717,5.8721,5.8779,5.8802,5.8841,5.8898,5.8976,5.9027,5.9101,5.9238,5.9253,5.93,5.9315,5.9327,5.9341,5.9418,5.944,5.9207,5.9207,5.9206,0,0,5.8419,5.8466,5.8516,5.8621,5.8665,5.8748,5.8691,5.878,5.8842,5.8815,5.8929,5.896,5.9025,5.9153,5.9211,5.9182,5.9409,5.9341,5.935,5.9357,5.9431,5.9453,5.9472,5.9214,5.9212,5.9211,0,0,5.8559,5.8603,5.8701,5.8747,5.8815,5.8836,5.886,5.8923,5.8943,5.9058,5.9041,5.9114,5.9247,5.9295,5.9336,5.9499,5.9481,5.9523,5.9602,5.9677,5.9696,5.9712,5.9771,5.9792,5.9536,5.9536,5.9536,0,5.8617,5.8741,5.8752,5.8844,5.8892,5.8874,5.8974,5.9018,5.9106,5.914,5.9106,5.9275,5.9317,5.9458,5.9498,5.9531,5.9559,5.9515,5.9692,5.9709,5.9724,5.9781,5.9803,5.9541,5.954,5.954,5.9539,0,5.881,5.8897,5.8968,5.9056,5.9112,5.9207,5.9232,5.9288,5.9287,5.9312,5.943,5.948,5.9565,5.9599,5.9598,5.974,5.972,5.969,5.9629,5.9751,5.9805,5.9826,5.9547,5.9546,5.9544,5.9543,0,0,5.8982,5.9077,5.9103,5.9144,5.922,5.9287,5.9382,5.9467,5.9515,5.9577,5.9658,5.9773,5.9746,5.9793,5.9799,5.9864,5.9992,5.9826,5.9828,5.9856,6.0153,6.0176,6.0201,5.9981,5.9985,5.9989,6.0148,0,5.913,5.9298,5.9312,5.9464,5.9545,5.9531,5.9614,5.967,5.9696,5.9769,5.9797,5.9879,5.9837,5.9866,5.993,5.9963,6.0052,5.9951,6.0057,6.006,6.0041,6.0229,6.0253,6.0401,6.0169,6.0173,6.0175,0,5.9324,5.9395,5.9555,5.9622,5.9657,5.9731,5.9812,5.9881,5.9945,5.9959,6.0014,6.0011,6.011,6.0046,6.0183,6.0114,6.0159,6.0181,6.0187,6.0198,6.0125,6.0245,6.0448,6.0471,6.0208,6.0205,6.0203,0,5.9435,5.957,5.9684,5.972,5.98,5.9853,5.9889,5.9949,6.0,6.007,6.0103,6.0183,6.0227,6.029,6.0309,6.0261,6.0446,6.0383,6.0462,6.0461,6.0501,6.0498,6.0715,6.0529,6.0529,6.0528,6.0528,0,5.9599,5.9698,5.9736,5.9806,5.9917,5.9932,6.0042,6.0075,6.0129,6.0205,6.0197,6.027,6.029,6.0367,6.0382,6.0494,6.0514,6.0529,6.0532,6.053,6.0528,6.0559,6.0549,6.0534,6.0533,6.0532,6.0531,0,5.9741,5.977,5.9894,5.9961,5.998,6.006,6.0117,6.0185,6.0211,6.0308,6.0332,6.0373,6.0462,6.0488,6.0595,6.0605,6.0737,6.0731,6.0716,6.0717,6.0794,6.0787,6.1038,6.1073,6.0863,6.0865,6.0867,0,5.9844,5.992,5.9996,6.0048,6.0087,6.0169,6.0222,6.0241,6.0296,6.0376,6.0435,6.0524,6.0596,6.074,6.0779,6.0861,6.0857,6.094,6.0869,6.0866,6.0859,6.0855,6.0863,6.0953,6.0955,6.0957,6.0958,0,6.0024,6.0035,6.0112,6.0195,6.0259,6.0325,6.0388,6.043,6.0458,6.0521,6.0614,6.067,6.078,6.0869,6.0953,6.099,6.098,6.098,6.1003,6.1002,6.0991,6.0999,6.0753,6.0974,6.0972,6.0971,6.097,6.097,6.015,6.0218,6.0283,6.037,6.042,6.048,6.0548,6.0584,6.0661,6.0754,6.076,6.0861,6.0925,6.1037,6.1079,6.1158,6.1134,6.1166,6.1174,6.1182,6.1189,6.0978,6.1173,6.1173,6.1172,6.1172,6.1172,0,6.0331,6.0373,6.0452,6.0542,6.0611,6.0596,6.0666,6.0724,6.0813,6.0874,6.0946,6.1054,6.114,6.1187,6.1274,6.1329,6.1326,6.1351,6.1347,6.1356,6.1205,6.1178,6.1351,6.1351,6.1351,6.1351,6.1351,6.1351,6.0433,6.0548,6.0567,6.0708,6.0749,6.0848,6.089,6.0946,6.0995,6.1115,6.1188,6.1219,6.1275,6.1366,6.1445,6.1457,6.1489,6.1517,6.1526,6.1385,6.1366,6.1349,6.1323,6.1524,6.1524,6.167,6.1672,6.1673]},{"header":{"parameterUnit":"m.s-1","parameterCategory":1,"la1":30.2991,"la2":30.254,"lo1":-89.0895,"lo2":-89.0444,"dy":0.0017,"dx":0.0017,"nx":28,"ny":28,"refTime":"2024-04-03T03:00:00:Z","depth":0,"parameterNumber":3,"parameterNumberName":"V-component_of_WINDS"},"data":[0,0,0,0,0,0,0,0,0,0,0,0,0,0,0,0,0,0,0,0,0,0,0,0,0,0,0,0,0,0,0,0,0,0,0,0,0,0,0,0,0,0,0,0,0,0,0,0,0,0,0,0,0,0,0,0,0,0,-6.9247,-6.9248,0,-6.9371,-6.9373,-6.9374,-6.9341,-6.9338,-6.9336,-6.9334,-6.9455,-6.946,-6.9466,0,0,0,0,0,0,0,0,0,0,0,0,0,-6.8975,-6.898,-6.9246,-6.9248,-6.925,-6.9371,-6.9373,-6.9374,-6.9341,-6.9338,-6.9335,-6.9333,-6.9453,-6.946,-6.9466,0,0,0,0,0,0,0,0,0,0,0,0,0,-6.9095,-6.8982,-6.9246,-6.9248,-6.9249,-6.9371,-6.9373,-6.9375,-6.9342,-6.9338,-6.9335,-6.9331,-6.9451,-6.9459,-6.9467,-6.9593,0,0,-6.9493,-6.9496,0,0,0,0,0,0,0,0,-6.9089,-6.9105,-6.9246,-6.9248,-6.925,-6.9337,-6.9321,-6.9448,-6.9343,-6.9307,-6.9334,-6.9329,-6.9418,-6.9429,-6.946,-6.9598,-6.9603,-6.9493,-6.9498,-6.9502,-6.9504,0,0,0,0,0,0,0,-6.908,-6.91,-6.9296,-6.9248,-6.9251,-6.9241,-6.9254,-6.9345,-6.9381,-6.9309,-6.9307,-6.9323,-6.9419,-6.9452,-6.9463,-6.9605,-6.9493,-6.9501,-6.9506,-6.9509,-6.9852,-6.9856,0,0,0,0,0,0,-6.9071,-6.9093,-6.9292,-6.9299,-6.9159,-6.9249,-6.9263,-6.9313,-6.938,-6.9387,-6.9326,-6.9321,-6.944,-6.9453,-6.9467,-6.9618,-6.9502,-6.951,-6.9515,-6.9848,-6.9853,-6.9858,0,0,0,0,0,0,-6.9066,-6.9089,-6.9287,-6.9196,-6.922,-6.9257,-6.9313,-6.9317,-6.9351,-6.9393,-6.9399,-6.9354,-6.9438,-6.9455,-6.9562,-6.9622,-6.9513,-6.9521,-6.9843,-6.985,-6.9856,-6.9922,0,0,0,0,0,0,-6.9058,-6.9088,-6.9137,-6.9197,-6.9225,-6.9381,-6.9317,-6.9322,-6.9366,-6.9361,-6.9421,-6.9427,-6.9436,-6.955,-6.957,-6.9632,-6.9528,-6.9838,-6.9846,-6.9854,-6.9915,-6.993,-6.9943,0,0,0,0,0,-6.9048,-6.9149,-6.9139,-6.9163,-6.9288,-6.9385,-6.9401,-6.941,-6.9371,-6.942,-6.9447,-6.9426,-6.9613,-6.9561,-6.9584,-6.9648,-6.9834,-6.9844,-6.9853,-6.9908,-6.9927,-6.9942,0,0,0,0,0,0,-6.9092,-6.9157,-6.9147,-6.927,-6.9323,-6.9379,-6.9441,-6.943,-6.9492,-6.9485,-6.9492,-6.9506,-6.9615,-6.9642,-6.9584,-6.9773,-6.9717,-6.9732,-6.9752,-6.977,-6.9783,-6.9774,-6.9534,0,0,0,0,0,-6.9117,-6.9192,-6.9244,-6.9347,-6.9375,-6.9404,-6.9446,-6.945,-6.9503,-6.9524,-6.9559,-6.961,-6.9681,-6.9727,-6.9794,-6.9919,-6.9931,-6.9974,-6.9988,-7.0,-7.0011,-7.008,-7.0099,-6.9888,-6.9888,-6.9888,0,0,-6.9167,-6.9211,-6.9258,-6.9357,-6.9398,-6.9475,-6.9422,-6.9505,-6.9561,-6.9536,-6.964,-6.9667,-6.9725,-6.9842,-6.9894,-6.9867,-7.0073,-7.0011,-7.002,-7.0026,-7.0091,-7.0111,-7.0129,-6.9895,-6.9894,-6.9893,0,0,-6.9297,-6.9339,-6.9431,-6.9474,-6.9537,-6.9556,-6.9578,-6.9637,-6.9655,-6.976,-6.9743,-6.9809,-6.993,-6.9972,-7.0009,-7.0157,-7.0139,-7.0178,-7.0251,-7.0318,-7.0334,-7.0349,-7.0402,-7.042,-7.019,-7.0191,-7.0191,0,-6.9351,-6.9468,-6.9479,-6.9564,-6.9608,-6.9591,-6.9683,-6.9723,-6.9805,-6.9834,-6.9804,-6.9956,-6.9993,-7.012,-7.0156,-7.0187,-7.0211,-7.0171,-7.0331,-7.0346,-7.036,-7.041,-7.043,-7.0195,-7.0194,-7.0194,-7.0194,0,-6.9531,-6.9612,-6.9678,-6.9759,-6.9811,-6.9899,-6.9922,-6.9972,-6.9971,-6.9993,-7.0099,-7.0144,-7.022,-7.025,-7.0249,-7.0377,-7.0358,-7.0329,-7.0273,-7.0385,-7.0432,-7.0451,-7.0201,-7.02,-7.0198,-7.0197,0,0,-6.9691,-6.978,-6.9803,-6.9841,-6.991,-6.9972,-7.0059,-7.0135,-7.0178,-7.0235,-7.0307,-7.0411,-7.0385,-7.0428,-7.0431,-7.0489,-7.0604,-7.0454,-7.0455,-7.048,-7.0747,-7.0767,-7.079,-7.0593,-7.0597,-7.06,-7.0742,0,-6.9828,-6.9984,-6.9997,-7.0136,-7.021,-7.0196,-7.0272,-7.0322,-7.0344,-7.041,-7.0434,-7.0507,-7.0468,-7.0494,-7.0551,-7.0578,-7.0657,-7.0568,-7.0659,-7.0662,-7.0645,-7.0814,-7.0836,-7.0968,-7.076,-7.0763,-7.0766,0,-7.0008,-7.0073,-7.022,-7.028,-7.0312,-7.038,-7.0452,-7.0515,-7.0571,-7.0583,-7.0631,-7.0627,-7.0715,-7.0657,-7.0777,-7.0716,-7.0754,-7.0773,-7.0778,-7.0786,-7.072,-7.0826,-7.101,-7.103,-7.0795,-7.0793,-7.079,0,-7.011,-7.0234,-7.0339,-7.0371,-7.0443,-7.0491,-7.0523,-7.0576,-7.0622,-7.0683,-7.0713,-7.0783,-7.0822,-7.0876,-7.089,-7.0846,-7.101,-7.0953,-7.1022,-7.1022,-7.1056,-7.1054,-7.1249,-7.1082,-7.1082,-7.1081,-7.1081,0,-7.0262,-7.0352,-7.0386,-7.045,-7.0551,-7.0564,-7.0663,-7.0692,-7.0739,-7.0807,-7.0799,-7.0862,-7.0878,-7.0944,-7.0956,-7.1054,-7.1071,-7.1083,-7.1085,-7.1083,-7.1082,-7.1108,-7.1099,-7.1087,-7.1085,-7.1084,-7.1083,0,-7.0392,-7.0419,-7.0532,-7.0592,-7.0609,-7.0681,-7.0731,-7.0792,-7.0814,-7.0901,-7.0922,-7.0956,-7.1034,-7.1054,-7.1146,-7.1154,-7.1269,-7.1263,-7.1251,-7.1251,-7.1319,-7.1312,-7.1536,-7.1566,-7.138,-7.1382,-7.1384,0,-7.0487,-7.0557,-7.0625,-7.0672,-7.0706,-7.0781,-7.0828,-7.0844,-7.0893,-7.0962,-7.1015,-7.1092,-7.1155,-7.1279,-7.1311,-7.1382,-7.1376,-7.145,-7.1386,-7.1383,-7.1377,-7.1372,-7.1379,-7.1462,-7.1464,-7.1465,-7.1467,0,-7.0652,-7.0662,-7.0731,-7.0806,-7.0863,-7.0921,-7.0978,-7.1015,-7.1039,-7.1094,-7.1175,-7.1224,-7.1319,-7.1396,-7.1467,-7.1498,-7.1486,-7.1487,-7.1506,-7.1505,-7.1496,-7.1502,-7.1284,-7.1481,-7.148,-7.1479,-7.1478,-7.1477,-7.0767,-7.0829,-7.0887,-7.0965,-7.1009,-7.1062,-7.1123,-7.1154,-7.1222,-7.1303,-7.1307,-7.1395,-7.1449,-7.1544,-7.1579,-7.1646,-7.1624,-7.1652,-7.1659,-7.1666,-7.1672,-7.1486,-7.1659,-7.1659,-7.1659,-7.1658,-7.1658,0,-7.0932,-7.0969,-7.104,-7.112,-7.1181,-7.1167,-7.1229,-7.128,-7.1358,-7.1411,-7.1473,-7.1566,-7.164,-7.1679,-7.1752,-7.1799,-7.1795,-7.1817,-7.1814,-7.1821,-7.1688,-7.1664,-7.1819,-7.1819,-7.1819,-7.1819,-7.1819,-7.1819,-7.1024,-7.1128,-7.1145,-7.127,-7.1306,-7.1394,-7.143,-7.1478,-7.1521,-7.1625,-7.1688,-7.1713,-7.176,-7.1837,-7.1904,-7.1913,-7.194,-7.1966,-7.1972,-7.1847,-7.183,-7.1815,-7.1792,-7.1972,-7.1972,-7.2099,-7.21,-7.2101]}]]